Flag for U.S.A. Weather past 2 weeks in Ontario, California, U.S.A.

Now
67 °F

Clear.


Feels Like: 67 °F
Forecast: 61 / 85 °F
Wind: 5 mph from Southwest

Location: Ontario International Airport

Current Time: Aug 23, 2014 at 1:39:30 AM

Latest Report: Aug 23, 2014 at 12:53 AM


Visibility: 10 mi

Pressure: 29.91 "Hg

Humidity: 81%

Dew point: 61 °F

Location of OntarioLocation

Historic Weather in Ontario — Graph

°F

Ontario temperature yesterday

Maximum temperature yesterday: 90 °F (at 2:53 PM)
Minimum temperature yesterday: 68 °F (at 4:53 AM)
Average temperature yesterday: 77 °F

Past Weeks' High & Low Weather Summary

 TemperatureHumidityPressure
High98 °F (Aug 15, 3:53 PM)91% (Aug 10, 2:53 AM)29.97 "Hg (Aug 10, 2:53 AM)
Low63 °F (Aug 8, 3:53 AM)17% (Aug 15, 9:53 PM)29.73 "Hg (Aug 18, 4:53 PM)
Average78 °F54%29.88 "Hg
* Reported Aug 7 11:53 PM — Aug 22 11:53 PM, Ontario, Weather by CustomWeather, © 2014

Note: Actual official high and low records may vary slightly from our data, if they occured in-between our weather recording intervals... More about our weather records

Advertising

Ontario weather history for previous 24 hours

 ConditionsComfort  
Time TempWeatherWind HumidityBarometerVisibility
11:53 PM
Aug 22
69 °FClear.5 mph76%29.92 "Hg10 mi
10:53 PM70 °FClear.5 mph76%29.92 "Hg10 mi
9:53 PM72 °FClear.6 mph71%29.91 "Hg10 mi
8:53 PM74 °FClear.13 mph64%29.90 "Hg10 mi
7:53 PM77 °FSunny.12 mph48%29.88 "Hg10 mi
6:53 PM83 °FPassing clouds.16 mph22%29.86 "Hg10 mi
5:53 PM87 °FPassing clouds.12 mph23%29.85 "Hg10 mi
4:53 PM89 °FPassing clouds.14 mph28%29.85 "Hg10 mi
3:53 PM89 °FPassing clouds.16 mph30%29.86 "Hg10 mi
2:53 PM90 °FPassing clouds.15 mph34%29.87 "Hg10 mi
1:53 PM88 °FPassing clouds.10 mph38%29.89 "Hg10 mi
12:53 PM87 °FPassing clouds.10 mph39%29.91 "Hg10 mi
11:53 AM84 °FPassing clouds.7 mph43%29.92 "Hg10 mi
10:53 AM81 °FPassing clouds.5 mph51%29.93 "Hg10 mi
9:53 AM78 °FSunny.6 mph56%29.93 "Hg10 mi
8:53 AM74 °FSunny.6 mph67%29.93 "Hg9 mi
7:53 AM72 °FSunny.No wind71%29.92 "Hg8 mi
6:53 AM68 °FClear.No wind82%29.91 "Hg8 mi
5:53 AM68 °FPassing clouds.5 mph78%29.90 "Hg8 mi
4:53 AM68 °FClear.No wind78%29.89 "Hg10 mi
3:53 AM69 °FClear.3 mph76%29.90 "Hg10 mi
2:53 AM71 °FClear.3 mph71%29.90 "Hg10 mi
1:53 AM70 °FClear.No wind73%29.90 "Hg10 mi
Weather by CustomWeather, © 2014

See weather overviewHow to use our weather pages